Cosmos 1153 Rocket - Orbit

View from above orbital plane
View from above orbital plane
View from above satellite
View from above satellite

Ground track
Ground track

The orbit data is extracted from the following two-line orbital elements,

1 11681U 80007B   13168.83027385  .00000085  00000-0  72189-4 0  1612
2 11681 082.9320 058.6342 0037761 104.8004 327.6624 13.75306886675647
Epoch (UTC): 17 June 2013 19:55:35
Eccentricity: 0.0037761
inclination: 82.9320°
perigee height: 953 km
apogee height: 1008 km
right ascension of ascending node: 58.6342°
argument of perigee: 104.8004°
revolutions per day: 13.75306886
mean anomaly at epoch: 327.6624°
orbit number at epoch: 67564

The dashed part of the orbit path shows where the satellite is in the earth's shadow,  

Developed and maintained by Chris Peat, Heavens-Above GmbH. Please read the updated FAQ before sending e-mail. Imprint. DLR